Wind_Speed
8 8 7 7 7 6 6 5 4 5 6 7 7 6 6 6 7 6 6 8 8 9 9 8 9 10 10 11 11 11 11 11 12 15 15 15 18 21 12 11 8 10 4 2 1 2 4
10 10 9 8 8 7 6 5 5 3 2 3 5 5 4 3 4 5 5 5 7 8 9 9 10 9 9 7 8 8 10 10 10 14 13 17 20 16 16 14 7 8 4 1 3 2 2
12 12 11 11 10 9 8 7 6 5 4 3 1 3 3 2 1 3 6 5 4 5 6 7 10 11 9 7 7 7 6 7 8 10 11 14 17 16 10 14 11 8 5 6 2 1 5
12 13 13 13 12 12 11 10 9 8 7 6 5 2 1 1 1 3 5 6 6 5 5 6 8 10 10 6 6 8 5 4 2 4 8 10 13 15 11 7 1 10 10 8 4 8 7
13 13 14 15 15 14 14 13 12 11 10 10 8 7 4 2 1 3 5 7 8 6 5 6 7 7 6 6 6 6 6 5 4 0 3 5 10 7 6 6 8 4 0 10 4 1 13
13 15 15 15 16 16 16 15 15 15 14 13 12 11 9 6 4 5 7 7 8 9 8 6 5 6 7 8 7 6 6 5 4 4 4 4 5 8 14 5 5 5 8 14 4 7 11
14 15 16 17 17 17 18 18 18 17 17 17 16 15 13 12 9 8 10 11 11 10 9 10 9 5 5 7 7 7 7 7 4 4 7 9 5 1 5 11 4 7 18 16 9 16 4
14 14 16 17 18 18 18 19 20 20 19 19 19 18 18 16 15 13 12 14 14 13 12 11 10 7 6 7 8 9 8 8 6 6 7 5 9 13 7 4 3 8 13 15 22 17 8
19 17 16 16 17 19 20 19 20 20 21 20 20 21 21 20 19 18 17 16 17 16 16 14 14 11 10 10 11 10 10 10 9 8 6 8 12 18 14 3 4 19 21 8 15 12 15
25 22 21 19 17 18 19 20 21 21 21 22 22 21 21 22 22 21 20 19 19 19 19 20 16 14 13 14 11 12 12 11 11 10 10 7 10 19 13 8 9 10 8 10 14 16 20
25 27 27 24 23 20 19 19 20 21 22 23 23 22 22 22 21 21 22 21 20 20 17 25 19 16 18 16 19 13 14 14 12 12 12 4 11 16 19 15 13 12 9 11 5 12 19
24 25 26 28 29 26 24 21 20 20 21 22 22 21 22 22 21 20 20 20 21 19 17 24 19 18 18 17 18 16 15 15 15 15 15 12 15 17 12 19 20 24 15 11 8 14 13
24 24 25 26 27 30 30 27 23 22 22 21 21 21 21 21 20 21 20 21 20 16 16 16 20 17 17 17 17 16 15 14 14 15 13 12 18 21 20 25 18 12 10 8 15 17 19
31 30 29 28 25 26 28 32 30 26 24 23 23 22 21 21 21 20 20 22 20 14 11 9 14 13 14 14 14 15 14 14 14 13 12 12 9 20 22 19 16 15 21 28 13 18 10
32 35 35 34 33 31 28 26 30 33 29 26 25 24 24 23 23 22 22 22 14 17 10 14 12 11 12 13 11 12 13 14 12 13 14 14 13 14 11 20 18 16 12 13 19 18 22
28 30 30 36 39 37 35 33 30 29 36 31 28 27 27 26 26 25 24 19 19 14 21 22 14 13 12 12 16 14 15 13 13 16 16 14 18 14 14 19 22 19 17 20 10 15 15
21 22 24 28 31 37 39 39 37 33 32 38 34 31 27 29 28 27 22 19 23 26 20 20 21 14 11 14 17 18 19 17 16 15 18 19 20 15 13 17 14 15 7 20 15 14 17
18 18 19 20 23 26 30 33 36 37 36 37 40 37 31 32 30 28 25 24 26 26 21 24 24 26 21 16 17 18 22 17 16 20 15 17 16 16 11 13 10 9 16 15 15 14 14
18 18 18 17 17 20 24 27 29 32 36 39 41 43 37 32 30 30 30 30 30 29 28 25 26 27 25 20 17 19 18 15 27 25 20 16 16 18 15 15 19 14 15 22 14 15 11
16 17 19 19 17 16 19 23 24 26 29 34 36 39 36 37 33 32 32 31 31 32 33 32 31 29 26 29 26 16 13 20 31 31 24 22 20 16 15 7 18 25 19 14 14 14 13
14 15 16 18 18 17 16 19 22 23 26 29 31 32 44 39 32 34 33 32 31 33 35 34 35 34 34 32 26 18 17 18 31 28 25 23 24 22 22 22 20 23 18 14 16 21 20
15 15 15 16 17 17 17 17 18 21 25 28 30 30 31 29 36 36 35 36 36 33 34 32 37 38 38 37 32 28 17 23 26 25 27 27 27 23 23 21 19 19 18 19 15 15 15
16 18 18 17 16 15 16 17 16 18 20 23 27 30 30 31 32 31 32 36 36 36 37 33 37 40 41 38 39 40 38 32 35 35 21 29 30 23 24 18 19 23 19 25 25 22 20
14 14 15 15 15 15 14 16 17 16 17 18 21 26 29 30 30 30 34 37 38 37 41 44 44 44 43 43 43 43 42 45 38 39 32 32 21 32 28 26 30 26 28 38 27 21 23
9 8 9 10 12 12 13 14 15 16 17 18 18 20 22 24 31 34 40 38 36 37 38 35 39 43 42 38 40 43 43 41 42 42 44 44 32 25 29 35 33 30 25 38 28 34 27
8 7 6 7 7 8 10 10 10 13 16 17 18 20 22 25 34 28 27 27 28 31 32 35 36 43 37 35 38 41 42 39 39 40 48 47 47 50 42 37 35 22 40 49 46 30 28
10 9 8 8 8 9 9 9 10 11 12 13 17 19 20 22 28 23 30 28 31 31 33 33 36 42 34 36 36 36 31 24 26 24 27 31 32 44 42 47 49 37 44 48 42 31 33
10 11 11 11 13 14 15 16 17 17 17 17 17 17 18 20 21 24 26 26 27 29 33 39 40 40 31 33 34 34 32 25 24 28 32 39 49 47 35 37 38 41 45 50 54 54 46
10 10 12 13 15 15 14 15 15 17 19 19 19 22 23 23 21 23 23 24 24 28 27 30 33 34 34 35 36 35 36 32 32 34 34 34 28 29 28 16 35 44 51 49 46 47 50
Wind_Direction
192 189 183 175 169 161 153 144 125 108 89 81 81 90 98 104 109 103 109 117 140 153 155 144 133 129 126 109 107 106 98 91 83 82 88 66 56 78 51 88 34 88 141 294 105 229 230
206 204 203 200 192 190 187 181 174 168 141 89 78 76 90 107 124 131 136 138 132 147 165 160 155 151 142 116 108 109 105 107 101 90 89 82 85 102 107 49 56 57 50 238 191 305 268
218 216 215 213 208 205 207 209 208 202 203 203 115 68 68 81 118 147 156 161 153 146 159 172 162 162 162 146 142 125 103 103 95 94 80 82 74 77 106 78 52 40 353 23 46 256 289
231 229 225 223 223 217 213 214 220 221 222 224 228 228 21 38 186 185 175 169 177 172 158 164 164 165 164 172 162 162 166 145 138 99 79 78 77 78 67 89 214 131 232 187 200 334 267
239 238 236 233 229 228 225 220 219 224 228 231 231 232 240 268 264 209 204 184 185 188 185 172 160 139 135 165 184 182 191 179 172 62 61 64 80 91 201 69 312 2 312 215 175 290 309
238 238 241 242 238 236 235 233 228 226 227 229 234 237 237 239 248 228 213 207 198 195 197 199 169 172 184 176 187 207 222 236 206 171 195 152 124 35 356 327 24 15 10 338 56 163 270
234 239 241 240 245 242 240 238 236 233 230 230 229 232 235 237 236 235 230 219 219 217 213 203 209 210 189 197 206 218 226 248 258 213 207 195 184 210 343 330 315 318 329 313 277 282 171
236 240 239 241 241 242 245 243 243 241 236 233 235 234 232 235 239 235 234 233 228 221 227 228 233 230 225 236 230 231 239 250 259 245 220 157 8 258 274 272 265 313 262 258 285 287 301
241 237 237 241 241 240 242 243 245 243 243 241 237 237 237 235 236 238 236 236 238 237 238 236 238 240 250 243 244 252 254 260 266 255 261 152 256 268 245 159 279 281 289 332 295 294 299
240 241 242 238 239 242 241 240 240 245 245 244 244 241 240 237 238 239 239 238 238 240 244 248 245 244 249 255 258 254 253 259 261 265 245 201 249 290 315 287 266 286 283 288 276 317 299
248 244 241 242 241 240 240 242 240 238 239 242 243 244 243 241 238 238 239 238 238 240 243 251 243 254 251 252 253 256 251 254 255 251 249 211 221 264 276 252 237 236 278 262 289 322 291
253 252 249 244 241 241 239 239 240 239 237 239 239 239 241 241 240 239 238 237 238 237 244 256 258 253 254 255 259 260 256 250 247 246 252 209 198 238 243 240 258 243 266 310 278 290 290
256 256 253 251 248 243 240 239 239 239 238 236 236 237 237 237 237 236 236 235 233 225 234 271 266 251 252 246 246 244 247 246 247 248 251 251 220 234 248 239 241 267 285 302 283 255 260
255 254 254 250 249 249 246 240 236 238 239 235 235 233 232 233 235 232 232 233 234 216 205 259 273 248 243 241 240 242 236 241 239 242 218 270 287 327 306 272 248 241 231 246 281 264 303
255 254 253 251 248 246 246 246 242 235 237 237 235 231 230 229 232 229 230 235 216 212 194 238 243 245 241 244 236 241 240 241 250 237 242 222 254 262 255 259 268 261 265 232 276 306 300
260 257 254 250 249 248 247 246 246 242 234 235 236 234 230 230 230 230 231 226 214 191 245 210 196 242 232 254 237 235 247 254 237 244 250 236 232 237 245 245 229 236 241 256 251 260 260
263 260 260 256 252 248 248 248 246 244 239 232 236 237 229 232 230 231 231 221 221 234 231 222 207 197 241 222 254 241 249 246 253 242 234 236 247 234 263 257 253 239 240 239 236 228 252
257 262 266 263 255 249 246 246 245 243 240 234 230 237 230 233 233 232 227 226 227 223 243 222 225 217 195 216 227 246 246 244 249 251 231 247 234 249 225 281 265 217 246 259 264 253 267
265 266 267 268 264 255 250 247 248 245 238 233 228 232 231 235 234 233 232 231 231 231 233 227 226 227 223 224 223 223 235 234 245 243 234 211 248 235 236 239 250 280 246 236 229 253 257
272 269 269 265 268 267 260 251 250 249 236 227 227 229 229 234 233 234 233 232 234 236 236 235 230 227 231 231 222 224 234 237 245 251 244 236 230 208 229 230 252 233 253 238 233 231 248
275 273 271 269 264 267 269 260 248 241 233 225 222 222 228 226 231 235 235 236 236 236 239 242 240 239 238 236 231 229 228 209 260 259 244 236 232 216 215 222 262 234 273 213 238 231 235
273 275 275 272 268 261 262 262 251 238 232 226 227 233 239 237 238 238 238 236 237 233 234 241 240 242 241 243 244 228 209 235 228 268 244 239 234 233 232 228 241 253 253 253 254 236 253
269 272 275 269 268 265 258 257 254 243 232 228 229 232 234 234 237 238 236 239 239 238 236 233 236 239 239 238 236 234 222 231 222 241 242 240 238 239 249 250 259 250 244 262 249 236 251
270 274 272 267 264 264 259 253 252 249 242 237 234 233 232 231 233 236 235 234 236 236 238 235 243 243 242 243 243 244 241 231 228 225 236 260 240 239 234 235 239 238 262 265 200 217 227
265 278 282 274 267 265 263 257 251 248 247 244 240 237 232 229 230 232 236 239 245 247 248 244 249 251 248 248 247 247 246 245 241 236 230 237 240 237 250 250 251 239 239 269 281 253 216
255 264 275 285 285 276 266 266 265 256 249 247 245 243 241 238 240 246 252 250 246 244 249 246 244 251 251 247 245 246 248 251 251 244 241 244 242 247 239 240 236 235 249 236 248 237 238
254 259 257 253 258 267 274 278 279 276 268 257 250 248 245 245 248 247 249 253 251 247 247 247 248 250 251 249 246 245 248 260 245 246 258 261 252 255 254 253 252 236 247 260 270 266 254
260 261 260 258 260 263 270 277 278 274 270 265 261 257 254 253 253 249 252 250 251 249 244 249 253 258 253 250 246 240 236 218 235 225 243 240 246 237 241 232 240 244 249 249 252 260 262
269 270 269 271 273 272 270 269 268 267 266 272 273 264 258 258 257 253 254 252 254 252 250 250 249 256 253 251 246 242 236 222 222 240 228 257 263 243 242 255 216 225 235 247 251 252 256
Height
5903 5904 5906 5907 5908 5909 5910 5911 5912 5913 5914 5915 5914 5915 5915 5915 5916 5916 5916 5917 5917 5918 5918 5918 5919 5919 5920 5920 5921 5920 5921 5921 5922 5924 5925 5920 5924 5925 5925 5929 5932 5931 5934 5933 5933 5933 5933
5903 5904 5906 5907 5908 5909 5911 5912 5912 5913 5914 5915 5916 5916 5916 5916 5917 5918 5918 5918 5919 5919 5920 5920 5921 5922 5922 5923 5922 5923 5923 5923 5925 5925 5929 5929 5928 5929 5930 5932 5934 5934 5933 5933 5934 5935 5935
5902 5904 5905 5906 5908 5909 5910 5911 5913 5913 5914 5915 5916 5917 5917 5917 5917 5918 5919 5920 5920 5920 5921 5921 5922 5923 5923 5925 5925 5925 5925 5925 5926 5926 5927 5929 5932 5933 5932 5931 5934 5937 5939 5935 5934 5935 5936
5901 5902 5903 5905 5906 5908 5910 5911 5912 5913 5914 5915 5916 5917 5918 5918 5918 5918 5919 5920 5921 5921 5922 5922 5923 5924 5925 5925 5926 5927 5927 5927 5927 5928 5929 5929 5932 5933 5932 5934 5932 5932 5933 5935 5935 5936 5934
5900 5901 5902 5903 5904 5906 5908 5909 5911 5912 5913 5914 5915 5916 5917 5918 5918 5918 5918 5920 5921 5921 5922 5923 5924 5925 5926 5926 5926 5927 5927 5928 5929 5930 5931 5931 5932 5932 5930 5933 5934 5935 5934 5935 5932 5938 5935
5898 5899 5899 5900 5902 5903 5905 5907 5908 5910 5911 5912 5914 5915 5916 5917 5918 5918 5919 5919 5921 5921 5922 5923 5925 5927 5927 5927 5928 5928 5927 5927 5929 5931 5932 5933 5934 5932 5932 5935 5935 5935 5936 5934 5928 5930 5937
5895 5896 5897 5898 5899 5901 5902 5904 5905 5907 5908 5910 5911 5913 5914 5915 5917 5917 5918 5919 5922 5923 5922 5923 5924 5925 5926 5928 5928 5928 5928 5928 5929 5931 5932 5932 5936 5935 5937 5937 5939 5939 5937 5935 5935 5932 5932
5892 5893 5894 5895 5896 5897 5899 5900 5902 5904 5905 5907 5908 5910 5912 5913 5914 5916 5917 5918 5919 5921 5922 5923 5923 5924 5925 5926 5927 5928 5928 5929 5929 5930 5931 5934 5934 5934 5935 5937 5940 5941 5939 5937 5934 5929 5928
5888 5890 5891 5892 5893 5894 5895 5897 5898 5900 5902 5903 5905 5906 5908 5910 5911 5913 5914 5916 5917 5918 5919 5921 5922 5923 5924 5926 5926 5927 5927 5927 5928 5929 5929 5932 5937 5934 5935 5936 5941 5938 5935 5931 5932 5932 5930
5883 5884 5886 5888 5889 5890 5892 5893 5894 5896 5897 5899 5901 5902 5904 5906 5909 5909 5911 5913 5914 5916 5917 5918 5920 5921 5923 5923 5925 5925 5925 5927 5926 5927 5928 5931 5937 5934 5933 5936 5940 5940 5933 5935 5934 5933 5930
5877 5878 5881 5883 5885 5886 5888 5889 5890 5892 5893 5895 5896 5898 5900 5902 5904 5906 5908 5909 5911 5912 5915 5913 5916 5918 5919 5922 5921 5923 5923 5923 5924 5925 5926 5930 5933 5935 5935 5935 5930 5934 5931 5932 5933 5931 5926
5871 5872 5874 5876 5878 5881 5883 5884 5886 5887 5889 5891 5892 5894 5896 5898 5899 5902 5903 5905 5907 5911 5911 5910 5913 5914 5916 5917 5918 5918 5920 5921 5921 5922 5922 5924 5927 5930 5929 5931 5928 5931 5929 5930 5930 5930 5926
5865 5866 5867 5869 5871 5873 5876 5879 5881 5882 5884 5886 5888 5889 5891 5893 5895 5897 5899 5901 5904 5907 5909 5910 5908 5911 5912 5913 5914 5915 5916 5917 5919 5919 5920 5922 5923 5925 5927 5926 5927 5928 5929 5930 5932 5929 5925
5858 5860 5861 5863 5864 5866 5868 5871 5874 5877 5879 5881 5883 5885 5886 5888 5890 5892 5894 5897 5900 5904 5907 5910 5907 5907 5908 5910 5911 5912 5913 5914 5915 5916 5917 5922 5925 5924 5923 5922 5923 5926 5926 5924 5926 5924 5925
5849 5851 5853 5855 5857 5859 5861 5864 5867 5870 5872 5876 5878 5880 5881 5883 5885 5887 5890 5892 5897 5899 5906 5910 5906 5905 5906 5907 5909 5910 5910 5912 5912 5914 5915 5919 5923 5927 5923 5923 5922 5922 5921 5926 5924 5918 5923
5841 5842 5844 5846 5848 5850 5853 5856 5859 5862 5865 5868 5871 5874 5876 5878 5880 5882 5885 5890 5892 5893 5897 5898 5903 5906 5908 5907 5908 5909 5909 5910 5911 5913 5913 5915 5917 5920 5921 5920 5920 5920 5922 5921 5922 5924 5924
5835 5835 5836 5837 5838 5840 5843 5847 5850 5854 5857 5860 5864 5866 5871 5872 5874 5877 5882 5886 5887 5888 5891 5894 5896 5902 5907 5909 5909 5910 5909 5911 5909 5909 5910 5914 5913 5916 5918 5915 5914 5916 5916 5918 5918 5919 5921
5830 5830 5830 5830 5830 5831 5833 5836 5839 5843 5847 5850 5855 5858 5864 5865 5870 5872 5876 5880 5882 5883 5887 5888 5891 5892 5896 5901 5904 5907 5907 5908 5908 5905 5908 5908 5910 5911 5915 5915 5913 5915 5918 5920 5918 5918 5918
5825 5825 5825 5825 5825 5825 5826 5828 5830 5833 5836 5841 5845 5849 5855 5858 5863 5866 5870 5873 5875 5878 5881 5883 5885 5888 5891 5893 5896 5899 5902 5905 5900 5902 5901 5905 5904 5907 5910 5915 5914 5912 5912 5913 5914 5918 5917
5819 5819 5820 5820 5820 5820 5820 5821 5823 5824 5827 5832 5837 5841 5847 5849 5854 5857 5861 5865 5868 5871 5874 5876 5878 5881 5883 5885 5888 5892 5897 5899 5896 5897 5896 5898 5899 5903 5908 5912 5910 5908 5907 5909 5911 5914 5916
5815 5815 5815 5815 5815 5815 5815 5815 5816 5818 5821 5825 5829 5832 5831 5841 5846 5849 5853 5856 5859 5863 5866 5868 5871 5874 5876 5878 5882 5886 5890 5894 5889 5889 5892 5893 5893 5896 5898 5902 5903 5905 5902 5904 5908 5908 5908
5811 5810 5810 5810 5810 5811 5811 5811 5812 5813 5815 5817 5821 5827 5831 5836 5837 5842 5845 5848 5851 5854 5857 5860 5862 5865 5868 5871 5876 5878 5884 5886 5887 5882 5885 5886 5887 5889 5891 5894 5898 5899 5902 5902 5899 5905 5907
5806 5806 5805 5805 5805 5806 5807 5807 5808 5809 5810 5813 5816 5819 5823 5827 5830 5834 5837 5839 5842 5845 5848 5850 5852 5855 5857 5861 5861 5865 5870 5873 5875 5875 5863 5877 5880 5883 5885 5890 5893 5893 5896 5898 5897 5896 5899
5801 5801 5801 5801 5801 5802 5802 5803 5805 5806 5807 5808 5810 5813 5816 5819 5822 5825 5826 5828 5831 5834 5837 5838 5840 5843 5848 5850 5853 5857 5861 5864 5866 5868 5871 5860 5865 5874 5878 5881 5882 5888 5888 5878 5870 5888 5890
5798 5798 5798 5798 5798 5798 5799 5800 5801 5802 5803 5804 5806 5808 5810 5812 5812 5814 5813 5818 5822 5825 5827 5832 5832 5832 5835 5842 5845 5846 5850 5854 5857 5862 5864 5864 5862 5867 5871 5873 5877 5880 5884 5872 5871 5876 5877
5796 5796 5795 5796 5796 5796 5796 5797 5797 5798 5799 5800 5801 5802 5804 5806 5803 5809 5812 5813 5814 5817 5819 5820 5823 5822 5828 5831 5834 5835 5838 5843 5847 5850 5854 5855 5858 5858 5862 5862 5864 5872 5857 5863 5863 5862 5868
5793 5793 5793 5793 5794 5794 5795 5795 5795 5795 5796 5796 5797 5798 5799 5799 5799 5803 5802 5806 5807 5810 5812 5812 5813 5812 5818 5821 5824 5828 5831 5837 5840 5844 5846 5846 5846 5844 5849 5849 5852 5857 5849 5850 5852 5859 5857
5791 5791 5791 5791 5791 5791 5791 5792 5791 5792 5792 5792 5793 5793 5793 5793 5794 5796 5796 5797 5798 5800 5801 5801 5805 5806 5810 5811 5814 5818 5822 5828 5833 5834 5829 5830 5832 5831 5833 5837 5841 5838 5841 5845 5845 5845 5848
5788 5788 5788 5788 5788 5788 5787 5787 5787 5787 5787 5787 5788 5787 5788 5788 5790 5788 5790 5790 5792 5793 5795 5795 5796 5798 5800 5802 5805 5808 5811 5816 5821 5820 5823 5820 5818 5821 5815 5801 5813 5820 5827 5830 5832 5833 5834